DLH801 GCTS-EDDH

Flight info

Callsign DLH801
Flight time N/A
Altitude 38000
Route GCTS/07 N0470F380 KASA1E KASAS DCT SAMAR DCT NEVTU DCT TIGGI DCT BARDI DCT ZMR N873 DELOG DCT PEXOD DCT YURZI UL14 TEPRA UN873 BAZOS DCT BELDI DCT VEKIN DCT ADUTO N873 VICOT DCT PABCO M105 RIBSO RIBS3S EDDH/33
Aircraft A346/H-VGDW/C

Departure

Time N/A
Airport Tenerife Sur Airport (GCTS)

Arrival

Time 2026-05-04 20:28
Airport Hamburg Helmut Schmidt Airport (EDDH)
Time Latitude Longitude Altitude Speed Heading
2026-05-04 19:00 46.69799 -2.25741 37988 ft 498 kts 30°
2026-05-04 19:00 46.72826 -2.23209 37978 ft 498 kts 30°
2026-05-04 19:01 46.78823 -2.18208 37981 ft 498 kts 30°
2026-05-04 19:01 46.84858 -2.13170 37980 ft 498 kts 30°
2026-05-04 19:02 46.90909 -2.08281 37975 ft 498 kts 27°
2026-05-04 19:02 46.97146 -2.03782 37960 ft 500 kts 28°
2026-05-04 19:03 47.00195 -2.01290 38135 ft 503 kts 31°
2026-05-04 19:03 47.03121 -1.98575 38558 ft 501 kts 34°
2026-05-04 19:03 47.05978 -1.95602 38882 ft 499 kts 37°
2026-05-04 19:03 47.08771 -1.92536 38968 ft 499 kts 37°
2026-05-04 19:04 47.14281 -1.86387 38955 ft 498 kts 37°
2026-05-04 19:04 47.19792 -1.80289 38955 ft 498 kts 37°
2026-05-04 19:05 47.25468 -1.74031 38954 ft 498 kts 37°
2026-05-04 19:05 47.31004 -1.67705 38976 ft 497 kts 41°
2026-05-04 19:06 47.36010 -1.60739 38963 ft 498 kts 47°
2026-05-04 19:06 47.40529 -1.52921 38967 ft 502 kts 52°
2026-05-04 19:07 47.44862 -1.44689 38953 ft 510 kts 53°
2026-05-04 19:07 47.49205 -1.36403 38952 ft 510 kts 53°
2026-05-04 19:08 47.53560 -1.28107 38948 ft 510 kts 53°
2026-05-04 19:08 47.57919 -1.19790 38941 ft 511 kts 53°
2026-05-04 19:09 47.62297 -1.11420 38948 ft 511 kts 53°
2026-05-04 19:09 47.66635 -1.03102 38950 ft 510 kts 53°
2026-05-04 19:10 47.70962 -0.94760 38946 ft 510 kts 53°
2026-05-04 19:10 47.75294 -0.86408 38949 ft 511 kts 53°
2026-05-04 19:11 47.79639 -0.78013 38941 ft 511 kts 53°
2026-05-04 19:11 47.83969 -0.69600 39026 ft 513 kts 51°
2026-05-04 19:12 47.86396 -0.65655 39231 ft 513 kts 46°
2026-05-04 19:12 47.91446 -0.58224 39702 ft 510 kts 45°
2026-05-04 19:12 47.93970 -0.54535 39885 ft 510 kts 45°
2026-05-04 19:13 47.96503 -0.50803 39944 ft 510 kts 45°
2026-05-04 19:13 48.01517 -0.43338 39956 ft 510 kts 45°
2026-05-04 19:14 48.06554 -0.35776 39955 ft 510 kts 45°
2026-05-04 19:14 48.11584 -0.28189 39955 ft 510 kts 46°
2026-05-04 19:15 48.16580 -0.20626 39960 ft 510 kts 46°
2026-05-04 19:15 48.21561 -0.13067 39962 ft 510 kts 46°
2026-05-04 19:16 48.26538 -0.05488 39967 ft 510 kts 46°
2026-05-04 19:16 48.31520 0.02116 39952 ft 510 kts 46°
2026-05-04 19:17 48.36472 0.09703 39960 ft 511 kts 46°
2026-05-04 19:17 48.41472 0.17384 39959 ft 511 kts 46°
2026-05-04 19:18 48.46441 0.25034 39960 ft 511 kts 46°
2026-05-04 19:18 48.51417 0.32713 39962 ft 510 kts 46°
2026-05-04 19:19 48.56467 0.40226 39960 ft 511 kts 44°
2026-05-04 19:19 48.61642 0.47590 39955 ft 510 kts 44°
2026-05-04 19:20 48.65965 0.53767 39962 ft 510 kts 44°
2026-05-04 19:20 48.71081 0.61126 39962 ft 508 kts 44°
2026-05-04 19:21 48.76222 0.68534 39967 ft 508 kts 44°
2026-05-04 19:21 48.81339 0.75955 39967 ft 508 kts 44°
2026-05-04 19:22 48.86456 0.83404 39970 ft 508 kts 44°
2026-05-04 19:22 48.91558 0.90852 39964 ft 509 kts 44°
2026-05-04 19:23 48.96647 0.98304 39976 ft 509 kts 44°
2026-05-04 19:23 49.01763 1.05808 39979 ft 509 kts 44°
2026-05-04 19:24 49.06862 1.13305 39981 ft 509 kts 44°
2026-05-04 19:24 49.11952 1.20817 39981 ft 506 kts 44°
2026-05-04 19:25 49.16990 1.28264 39978 ft 506 kts 44°
2026-05-04 19:25 49.22040 1.35771 39967 ft 507 kts 44°
2026-05-04 19:26 49.27100 1.43324 39967 ft 508 kts 44°
2026-05-04 19:26 49.32162 1.50888 39970 ft 506 kts 44°
2026-05-04 19:27 49.37188 1.58412 39971 ft 506 kts 44°
2026-05-04 19:27 49.42228 1.65975 39967 ft 506 kts 44°
2026-05-04 19:28 49.47124 1.73363 39965 ft 506 kts 44°
2026-05-04 19:28 49.52153 1.80963 39964 ft 506 kts 45°
2026-05-04 19:29 49.57216 1.88642 39977 ft 507 kts 45°
2026-05-04 19:29 49.62215 1.96260 39976 ft 508 kts 45°
2026-05-04 19:30 49.67253 2.03965 39975 ft 507 kts 45°
2026-05-04 19:30 49.72265 2.11642 39971 ft 508 kts 45°
2026-05-04 19:31 49.77242 2.19266 39974 ft 506 kts 45°
2026-05-04 19:31 49.82244 2.26957 39955 ft 506 kts 45°
2026-05-04 19:32 49.87264 2.34712 39967 ft 508 kts 45°
2026-05-04 19:32 49.92253 2.42440 39961 ft 508 kts 45°
2026-05-04 19:33 49.97253 2.50215 39959 ft 507 kts 45°
2026-05-04 19:33 50.02232 2.58003 39954 ft 506 kts 45°
2026-05-04 19:34 50.07205 2.65797 39953 ft 506 kts 45°
2026-05-04 19:34 50.12145 2.73543 39961 ft 506 kts 45°
2026-05-04 19:35 50.17130 2.81378 39970 ft 507 kts 45°
2026-05-04 19:35 50.22083 2.89180 39973 ft 507 kts 45°
2026-05-04 19:36 50.27060 2.97061 39970 ft 507 kts 45°
2026-05-04 19:36 50.31976 3.04884 39972 ft 507 kts 46°
2026-05-04 19:37 50.36921 3.12792 39975 ft 507 kts 46°
2026-05-04 19:37 50.41856 3.20687 39980 ft 508 kts 46°
2026-05-04 19:38 50.46953 3.28437 39976 ft 508 kts 41°
2026-05-04 19:38 50.52513 3.35205 39974 ft 508 kts 34°
2026-05-04 19:39 50.58592 3.40952 39976 ft 508 kts 27°
2026-05-04 19:39 50.64974 3.45626 39982 ft 508 kts 23°
2026-05-04 19:40 50.71488 3.50048 39980 ft 508 kts 22°
2026-05-04 19:40 50.77962 3.54482 39982 ft 508 kts 23°
2026-05-04 19:41 50.84450 3.58966 39988 ft 509 kts 22°
2026-05-04 19:41 50.90942 3.63467 39990 ft 509 kts 23°
2026-05-04 19:42 50.97405 3.68074 39989 ft 509 kts 24°
2026-05-04 19:42 51.03825 3.72713 39993 ft 509 kts 24°
2026-05-04 19:43 51.10261 3.77358 39992 ft 509 kts 24°
2026-05-04 19:43 51.16692 3.82013 39981 ft 509 kts 24°
2026-05-04 19:44 51.23175 3.86718 39993 ft 509 kts 24°
2026-05-04 19:44 51.29610 3.91415 39993 ft 510 kts 24°
2026-05-04 19:45 51.36045 3.96134 39994 ft 510 kts 24°
2026-05-04 19:45 51.42411 4.01265 39984 ft 511 kts 30°
2026-05-04 19:46 51.48291 4.07543 39980 ft 511 kts 37°
2026-05-04 19:46 51.53664 4.15032 39982 ft 512 kts 45°
2026-05-04 19:47 51.58499 4.23400 39988 ft 512 kts 48°
2026-05-04 19:47 51.63125 4.31786 39985 ft 512 kts 49°
2026-05-04 19:48 51.67845 4.40341 39981 ft 512 kts 48°
2026-05-04 19:48 51.72575 4.48896 40000 ft 512 kts 48°
2026-05-04 19:49 51.77330 4.57518 39997 ft 512 kts 48°
2026-05-04 19:49 51.82026 4.66060 39616 ft 511 kts 49°
2026-05-04 19:49 51.84394 4.70384 39090 ft 512 kts 49°
2026-05-04 19:50 51.86757 4.74708 38600 ft 512 kts 49°
2026-05-04 19:50 51.89099 4.79001 38068 ft 512 kts 49°
2026-05-04 19:50 51.91483 4.83380 37995 ft 512 kts 49°
2026-05-04 19:51 51.96182 4.92032 37996 ft 513 kts 49°
2026-05-04 19:51 52.00897 5.00734 37994 ft 514 kts 49°
2026-05-04 19:52 52.05626 5.09488 37992 ft 514 kts 49°
2026-05-04 19:52 52.10344 5.18253 37996 ft 514 kts 49°
2026-05-04 19:53 52.15036 5.26999 37999 ft 514 kts 49°
2026-05-04 19:53 52.19749 5.35819 38006 ft 514 kts 49°
2026-05-04 19:54 52.24429 5.44602 37991 ft 514 kts 49°
2026-05-04 19:54 52.29129 5.53450 38004 ft 515 kts 49°
2026-05-04 19:55 52.33828 5.62335 38006 ft 515 kts 49°
2026-05-04 19:55 52.38489 5.71179 38002 ft 515 kts 49°
2026-05-04 19:56 52.43175 5.80109 38003 ft 515 kts 49°
2026-05-04 19:56 52.47843 5.89023 38001 ft 515 kts 49°
2026-05-04 19:57 52.52508 5.97973 38007 ft 515 kts 50°
2026-05-04 19:57 52.57157 6.06933 37998 ft 515 kts 50°
2026-05-04 19:58 52.61798 6.15889 38015 ft 516 kts 49°
2026-05-04 19:58 52.66457 6.24890 38000 ft 516 kts 49°
2026-05-04 19:59 52.71110 6.33922 38005 ft 516 kts 49°
2026-05-04 19:59 52.75744 6.42987 38001 ft 516 kts 51°
2026-05-04 20:00 52.79705 6.52778 37999 ft 507 kts 58°
2026-05-04 20:00 52.83389 6.62714 38008 ft 499 kts 58°
2026-05-04 20:00 52.85196 6.67553 37756 ft 491 kts 58°
2026-05-04 20:01 52.86993 6.72325 37179 ft 490 kts 58°
2026-05-04 20:01 52.88794 6.77100 36437 ft 493 kts 58°
2026-05-04 20:01 52.90649 6.82007 35659 ft 497 kts 58°
2026-05-04 20:01 52.92461 6.86809 34935 ft 501 kts 59°
2026-05-04 20:02 52.94328 6.91782 34210 ft 504 kts 59°
2026-05-04 20:02 52.96180 6.96728 33435 ft 507 kts 59°
2026-05-04 20:02 52.98032 7.01679 32684 ft 508 kts 59°
2026-05-04 20:02 52.99904 7.06680 32010 ft 508 kts 59°
2026-05-04 20:03 53.01791 7.11723 31322 ft 508 kts 59°
2026-05-04 20:03 53.03644 7.16688 30599 ft 508 kts 59°
2026-05-04 20:03 53.05498 7.21671 29804 ft 511 kts 60°
2026-05-04 20:03 53.06748 7.25040 29179 ft 513 kts 59°
2026-05-04 20:04 53.09239 7.31780 28027 ft 514 kts 59°
2026-05-04 20:04 53.10491 7.35176 27492 ft 514 kts 59°
2026-05-04 20:04 53.12365 7.40245 26969 ft 507 kts 58°
2026-05-04 20:04 53.14204 7.45196 26489 ft 501 kts 58°
2026-05-04 20:05 53.16043 7.50164 25900 ft 496 kts 58°
2026-05-04 20:05 53.17831 7.55030 25363 ft 491 kts 58°
2026-05-04 20:05 53.19594 7.59835 25046 ft 487 kts 58°
2026-05-04 20:05 53.21391 7.64740 25021 ft 488 kts 58°
2026-05-04 20:06 53.23233 7.69771 25004 ft 489 kts 58°
2026-05-04 20:06 53.25004 7.74600 25012 ft 488 kts 58°
2026-05-04 20:06 53.26780 7.79447 24922 ft 481 kts 58°
2026-05-04 20:06 53.28515 7.84196 24683 ft 483 kts 58°
2026-05-04 20:07 53.30250 7.88963 24447 ft 481 kts 58°
2026-05-04 20:07 53.31992 7.93769 24208 ft 479 kts 59°
2026-05-04 20:07 53.33729 7.98573 23973 ft 477 kts 59°
2026-05-04 20:07 53.35431 8.03291 23741 ft 475 kts 59°
2026-05-04 20:08 53.37152 8.08073 23468 ft 473 kts 59°
2026-05-04 20:08 53.38824 8.12728 22943 ft 469 kts 59°
2026-05-04 20:08 53.40509 8.17431 22389 ft 464 kts 58°
2026-05-04 20:08 53.42148 8.22013 21881 ft 459 kts 58°
2026-05-04 20:09 53.43800 8.26640 21340 ft 455 kts 58°
2026-05-04 20:09 53.45408 8.31145 20825 ft 451 kts 58°
2026-05-04 20:09 53.47014 8.35682 20307 ft 450 kts 58°
2026-05-04 20:09 53.48608 8.40176 19810 ft 447 kts 58°
2026-05-04 20:10 53.50190 8.44638 19329 ft 444 kts 58°
2026-05-04 20:10 53.51764 8.49088 18845 ft 440 kts 58°
2026-05-04 20:10 53.53325 8.53508 18369 ft 436 kts 58°
2026-05-04 20:10 53.54852 8.57848 17837 ft 432 kts 58°
2026-05-04 20:11 53.56391 8.62232 17300 ft 428 kts 58°
2026-05-04 20:11 53.57892 8.66511 16825 ft 425 kts 58°
2026-05-04 20:11 53.59382 8.70762 16386 ft 422 kts 58°
2026-05-04 20:11 53.60900 8.75082 15944 ft 419 kts 58°
2026-05-04 20:12 53.62374 8.79280 15516 ft 417 kts 58°
2026-05-04 20:12 53.63843 8.83466 15092 ft 414 kts 58°
2026-05-04 20:12 53.65315 8.87667 14658 ft 411 kts 59°
2026-05-04 20:12 53.66742 8.91768 14261 ft 409 kts 59°
2026-05-04 20:13 53.68191 8.95965 13859 ft 408 kts 59°
2026-05-04 20:13 53.69592 9.00014 13392 ft 406 kts 59°
2026-05-04 20:13 53.71027 9.04155 12748 ft 400 kts 59°
2026-05-04 20:13 53.72420 9.08181 12197 ft 398 kts 59°
2026-05-04 20:14 53.73804 9.12185 11689 ft 396 kts 59°
2026-05-04 20:14 53.75199 9.16233 11304 ft 393 kts 59°
2026-05-04 20:14 53.76561 9.20194 11025 ft 390 kts 59°
2026-05-04 20:14 53.77931 9.24183 10592 ft 385 kts 59°
2026-05-04 20:15 53.79234 9.27984 10323 ft 361 kts 59°
2026-05-04 20:15 53.80397 9.31570 10066 ft 340 kts 64°
2026-05-04 20:15 53.81289 9.35186 9892 ft 329 kts 71°
2026-05-04 20:15 53.81922 9.38865 9689 ft 320 kts 77°
2026-05-04 20:16 53.82378 9.42480 9486 ft 311 kts 79°
2026-05-04 20:16 53.82795 9.46040 9331 ft 304 kts 79°
2026-05-04 20:16 53.83205 9.49544 9199 ft 303 kts 79°
2026-05-04 20:16 53.83622 9.53073 9069 ft 303 kts 79°
2026-05-04 20:17 53.84035 9.56537 8929 ft 302 kts 79°
2026-05-04 20:17 53.84455 9.60059 8812 ft 301 kts 79°
2026-05-04 20:17 53.84871 9.63533 8671 ft 300 kts 79°
2026-05-04 20:17 53.85283 9.66981 8550 ft 300 kts 79°
2026-05-04 20:18 53.85694 9.70473 8429 ft 300 kts 79°
2026-05-04 20:18 53.86102 9.73964 8302 ft 302 kts 79°
2026-05-04 20:18 53.86427 9.77473 8179 ft 302 kts 85°
2026-05-04 20:18 53.86551 9.81008 8049 ft 301 kts 91°
2026-05-04 20:19 53.86464 9.84564 7720 ft 300 kts 97°
2026-05-04 20:19 53.86224 9.88139 7225 ft 302 kts 99°
2026-05-04 20:19 53.85958 9.91676 6734 ft 305 kts 98°
2026-05-04 20:19 53.85694 9.95227 6245 ft 307 kts 98°
2026-05-04 20:20 53.85429 9.98870 5687 ft 308 kts 98°
2026-05-04 20:20 53.85171 10.02445 5130 ft 303 kts 98°
2026-05-04 20:20 53.84918 10.05941 4652 ft 297 kts 98°
2026-05-04 20:20 53.84668 10.09393 4206 ft 297 kts 98°
2026-05-04 20:21 53.84334 10.12817 3944 ft 288 kts 110°
2026-05-04 20:21 53.83485 10.15817 3628 ft 282 kts 122°
2026-05-04 20:21 53.81436 10.21366 2987 ft 259 kts 124°
2026-05-04 20:22 53.80502 10.23806 2954 ft 234 kts 124°
2026-05-04 20:22 53.79643 10.26036 3030 ft 218 kts 129°
2026-05-04 20:22 53.78517 10.27638 3039 ft 212 kts 160°
2026-05-04 20:22 53.77088 10.27820 2987 ft 206 kts 197°
2026-05-04 20:23 53.75917 10.26533 2992 ft 201 kts 232°
2026-05-04 20:23 53.75211 10.24567 2997 ft 193 kts 241°
2026-05-04 20:23 53.74519 10.22615 2996 ft 196 kts 237°
2026-05-04 20:23 53.73724 10.20681 3002 ft 194 kts 236°
2026-05-04 20:24 53.72947 10.18922 2947 ft 182 kts 233°
2026-05-04 20:24 53.72162 10.17285 2721 ft 175 kts 231°
2026-05-04 20:24 53.71404 10.15747 2456 ft 163 kts 231°
2026-05-04 20:24 53.70707 10.14347 2215 ft 151 kts 231°
2026-05-04 20:25 53.70032 10.12992 2027 ft 149 kts 232°
2026-05-04 20:25 53.69362 10.11629 1852 ft 155 kts 231°
2026-05-04 20:25 53.68646 10.10181 1677 ft 164 kts 229°
2026-05-04 20:25 53.67915 10.08717 1447 ft 163 kts 233°
2026-05-04 20:26 53.67202 10.07244 1186 ft 162 kts 234°
2026-05-04 20:26 53.66496 10.05775 926 ft 160 kts 233°
2026-05-04 20:26 53.65793 10.04353 723 ft 156 kts 233°
2026-05-04 20:26 53.65076 10.02936 532 ft 158 kts 233°
2026-05-04 20:27 53.64374 10.01532 337 ft 156 kts 233°
2026-05-04 20:27 53.63683 10.00151 109 ft 152 kts 234°
2026-05-04 20:27 53.63050 9.98850 52 ft 121 kts 230°
2026-05-04 20:27 53.62642 9.98030 56 ft 66 kts 230°
2026-05-04 20:28 53.62451 9.97646 55 ft 24 kts 230°
2026-05-04 20:28 53.62332 9.97427 54 ft 26 kts 218°
2026-05-04 20:28 53.62197 9.97441 56 ft 9 kts 124°
2026-05-04 20:28 53.62195 9.97446 56 ft 0 kts 122°
2026-05-04 20:29 53.62193 9.97451 55 ft 0 kts 117°
2026-05-04 20:30 53.62194 9.97593 56 ft 16 kts 70°
2026-05-04 20:30 53.62267 9.97769 53 ft 20 kts 50°
2026-05-04 20:30 53.62367 9.97966 53 ft 24 kts 49°
2026-05-04 20:30 53.62487 9.98173 58 ft 26 kts 45°
2026-05-04 20:31 53.62607 9.98386 52 ft 18 kts 49°
2026-05-04 20:31 53.62696 9.98563 54 ft 22 kts 50°
2026-05-04 20:31 53.62801 9.98775 55 ft 25 kts 50°
2026-05-04 20:31 53.62893 9.98962 52 ft 18 kts 50°
2026-05-04 20:32 53.62979 9.99140 55 ft 21 kts 50°
2026-05-04 20:32 53.63089 9.99382 53 ft 30 kts 54°
2026-05-04 20:32 53.63189 9.99605 52 ft 12 kts 52°
2026-05-04 20:32 53.63193 9.99613 52 ft 0 kts 52°
2026-05-04 20:33 53.63213 9.99650 51 ft 15 kts 46°
2026-05-04 20:33 53.63296 9.99797 53 ft 19 kts 47°
2026-05-04 20:33 53.63383 9.99969 51 ft 19 kts 52°
2026-05-04 20:34 53.63431 10.00120 56 ft 9 kts 80°
2026-05-04 20:34 53.63431 10.00234 57 ft 3 kts 115°
2026-05-04 20:34 53.63427 10.00257 52 ft 6 kts 104°
2026-05-04 20:34 53.63420 10.00309 58 ft 1 kts 100°
2026-05-04 20:35 53.63419 10.00321 59 ft 0 kts 99°